Santa Monica, CA

5:53 PM PDT on June 27, 2017 (GMT -0700)
Santa Monica Municipal

Weather History for KSMO - December, 2013

Change the Weather History Date:

Sunday, December 1, 2013

  Actual Average Record
Temperature  
Mean Temperature 64 °F -  
Max Temperature 75 °F 68 °F 88 °F (1959)
Min Temperature 54 °F 49 °F 39 °F (1948)
Growing Degree Days 14 (Base 50)    
Moisture  
Dew Point 42 °F    
Average Humidity 48    
Maximum Humidity 72    
Minimum Humidity 25    
Precipitation  
Precipitation 0.00 in - - ()
Sea Level Pressure  
Sea Level Pressure 30.15 in    
Wind  
Wind Speed 4 mph (East)    
Max Wind Speed 8 mph    
Max Gust Speed -    
Visibility 10 miles    
Events      
Averages and records for this station are not official NWS values.
T = Trace of Precipitation, MM = Missing Value Source: NWS Daily Summary

Daily Weather History Graph

Daily Weather History Graph

Search for Another Location

Airport or City:

Trip Planner

Search our weather history database for the weather conditions in past years. The results will help you decide how hot, cold, wet, or windy it might be!

Date:

Astronomy

Dec. 01, 2013 Rise Set
Actual Time 6:41 AM PST 4:44 PM PST
Civil Twilight 6:14 AM PST 5:11 PM PST
Nautical Twilight 5:43 AM PST 5:42 PM PST
Astronomical Twilight 5:12 AM PST 6:12 PM PST
Moon 5:08 AM PST (12/1) 3:55 PM PST (12/1)
Length of Visible Light 10h 57m
Length of Day
10h 03m
Waning Crescent, 2% of the Moon is Illuminated
Dec 1
Waning Crescent
Dec 2
New
Dec 9
First Quarter
Dec 17
Full
Dec 25
Last Quarter

Hourly Weather History & Observations

Time (PST) Temp. Dew Point Humidity Pressure Visibility Wind Dir Wind Speed Gust Speed Precip Events Conditions
12:51 AM 57.9 °F 48.0 °F 70% 30.14 in 10.0 mi ENE 4.6 mph - N/A   Clear
1:51 AM 57.0 °F 45.0 °F 64% 30.14 in 10.0 mi ENE 4.6 mph - N/A   Clear
2:51 AM 57.0 °F 44.1 °F 62% 30.15 in 10.0 mi East 4.6 mph - N/A   Clear
3:51 AM 55.9 °F 43.0 °F 62% 30.15 in 10.0 mi ENE 3.5 mph - N/A   Clear
4:51 AM 55.0 °F 41.0 °F 59% 30.17 in 10.0 mi NE 4.6 mph - N/A   Clear
5:51 AM 54.0 °F 41.0 °F 62% 30.17 in 10.0 mi NE 4.6 mph - N/A   Clear
6:51 AM 57.0 °F 37.0 °F 47% 30.19 in 10.0 mi NNE 4.6 mph - N/A   Clear
7:51 AM 63.0 °F 36.0 °F 37% 30.20 in 10.0 mi Calm Calm - N/A   Clear
8:51 AM 64.9 °F 44.1 °F 47% 30.21 in 10.0 mi Calm Calm - N/A   Clear
9:51 AM 70.0 °F 39.9 °F 33% 30.22 in 10.0 mi ESE 3.5 mph - N/A   Clear
10:51 AM 73.9 °F 36.0 °F 25% 30.19 in 10.0 mi ENE 3.5 mph - N/A   Clear
11:51 AM 75.9 °F 42.1 °F 30% 30.15 in 10.0 mi SSW 5.8 mph - N/A   Clear
12:51 PM 73.0 °F 37.9 °F 28% 30.13 in 10.0 mi WSW 5.8 mph - N/A   Clear
1:51 PM 75.0 °F 37.9 °F 26% 30.11 in 10.0 mi SSW 8.1 mph - N/A   Clear
2:51 PM 72.0 °F 36.0 °F 27% 30.11 in 10.0 mi SW 5.8 mph - N/A   Clear
3:51 PM 71.1 °F 34.0 °F 26% 30.11 in 10.0 mi SW 4.6 mph - N/A   Clear
4:51 PM 66.9 °F 50.0 °F 54% 30.11 in 10.0 mi South 4.6 mph - N/A   Clear
5:51 PM 64.0 °F 53.1 °F 67% 30.13 in 10.0 mi Calm Calm - N/A   Clear
6:51 PM 62.1 °F 53.1 °F 72% 30.12 in 10.0 mi Calm Calm - N/A   Clear
7:51 PM 61.0 °F 43.0 °F 52% 30.13 in 10.0 mi Calm Calm - N/A   Clear
8:51 PM 59.0 °F 43.0 °F 55% 30.14 in 10.0 mi Calm Calm - N/A   Clear
9:51 PM 61.0 °F 36.0 °F 39% 30.15 in 10.0 mi Calm Calm - N/A   Clear
10:51 PM 57.9 °F 39.9 °F 51% 30.14 in 10.0 mi ENE 5.8 mph - N/A   Clear
11:51 PM 57.9 °F 37.9 °F 47% 30.12 in 10.0 mi ENE 4.6 mph - N/A   Clear